This is the latest recevied weather packets stored in our database for station/object DJ9MA-10. If no packets are shown the sender has not sent any weather packets the latest 10 day(s).
| Time | Temp. | Humidity | Pressure | Rain* | Wind** | Luminosity | Snow |
|---|---|---|---|---|---|---|---|
| 1777868058 | 20.56° C | 78% | 963.1 hPa | - | - | - | - |
| 1777867158 | 20.56° C | 74% | 962.9 hPa | - | - | - | - |
| 1777866258 | 20.56° C | 73% | 963 hPa | - | - | - | - |
| 1777865358 | 20.56° C | 73% | 963.1 hPa | - | - | - | - |
| 1777864458 | 20.56° C | 72% | 963.1 hPa | - | - | - | - |
| 1777863558 | 20.56° C | 70% | 963.2 hPa | - | - | - | - |
| 1777862658 | 21.11° C | 68% | 963.2 hPa | - | - | - | - |
| 1777861758 | 20.56° C | 68% | 963.3 hPa | - | - | - | - |
| 1777860858 | 21.11° C | 67% | 963.3 hPa | - | - | - | - |
| 1777859958 | 21.11° C | 67% | 963.1 hPa | - | - | - | - |
| 1777859058 | 21.11° C | 65% | 963.2 hPa | - | - | - | - |
| 1777858158 | 21.67° C | 65% | 963.1 hPa | - | - | - | - |
| 1777857258 | 21.67° C | 65% | 963 hPa | - | - | - | - |
| 1777856357 | 21.67° C | 66% | 963.1 hPa | - | - | - | - |
| 1777855457 | 21.67° C | 66% | 963.1 hPa | - | - | - | - |
| 1777854557 | 22.22° C | 68% | 963 hPa | - | - | - | - |
| 1777853657 | 21.67° C | 71% | 962.7 hPa | - | - | - | - |
| 1777852757 | 22.22° C | 75% | 962.5 hPa | - | - | - | - |
| 1777851857 | 22.78° C | 79% | 962.3 hPa | - | - | - | - |
| 1777850956 | 22.78° C | 79% | 962.1 hPa | - | - | - | - |
| 1777850056 | 22.78° C | 76% | 962 hPa | - | - | - | - |
| 1777849156 | 23.33° C | 71% | 961.9 hPa | - | - | - | - |
| 1777848256 | 23.33° C | 66% | 961.7 hPa | - | - | - | - |
| 1777847355 | 23.33° C | 62% | 961.5 hPa | - | - | - | - |
| 1777846455 | 23.89° C | 60% | 961.3 hPa | - | - | - | - |
* Rain since midnight (hover to see other rain measurements)
** Current wind speed in m/s (hover to see current wind gust speed)